Henderson, KY

3:37 AM CDT on July 19, 2019 (GMT -0500)
Henderson City-County

Weather History for KEHR - May, 2019

Change the Weather History Date:

Saturday, May 11, 2019

  Actual Average Record
Temperature  
Mean Temperature 56 °F -  
Max Temperature 62 °F 77 °F 89 °F (2005)
Min Temperature 50 °F 54 °F 36 °F (1945)
Degree Days  
Heating Degree Days 9    
Growing Degree Days 6 (Base 50)    
Moisture  
Dew Point 51 °F    
Average Humidity 85    
Maximum Humidity 100    
Minimum Humidity 68    
Precipitation  
Precipitation 0.18 in - - ()
Sea Level Pressure  
Sea Level Pressure 29.93 in    
Wind  
Wind Speed 7 mph (NNE)    
Max Wind Speed 12 mph    
Max Gust Speed 17 mph    
Visibility 8 miles    
Events Rain    
Averages and records for this station are not official NWS values.
T = Trace of Precipitation, MM = Missing Value Source: NWS Daily Summary

Daily Weather History Graph

Daily Weather History Graph

Search for Another Location

Airport or City:

Astronomy

May. 11, 2019 Rise Set
Actual Time 5:44 AM CDT 7:50 PM CDT
Civil Twilight 5:15 AM CDT 8:19 PM CDT
Nautical Twilight 4:40 AM CDT 8:54 PM CDT
Astronomical Twilight 4:01 AM CDT 9:33 PM CDT
Moon 11:53 AM CDT (5/11) 1:30 AM CDT (5/11)
Length of Visible Light 15h 03m
Length of Day
14h 05m
Waxing Crescent, 46% of the Moon is Illuminated
May 11
Waxing Crescent
May 11
First Quarter
May 18
Full
May 26
Last Quarter
Jun 3
New

Hourly Weather History & Observations

Time (CDT) Temp. Dew Point Humidity Pressure Visibility Wind Dir Wind Speed Gust Speed Precip Events Conditions
12:56 AM 51.1 °F 44.1 °F 77% 30.14 in 10.0 mi NE 9.2 mph - N/A   Clear
1:56 AM 51.1 °F 45.0 °F 80% 30.12 in 10.0 mi NE 6.9 mph - N/A   Overcast
2:56 AM 52.0 °F 45.0 °F 77% 30.11 in 10.0 mi NE 6.9 mph - N/A   Overcast
3:56 AM 52.0 °F 45.0 °F 77% 30.10 in 10.0 mi NE 9.2 mph - N/A   Mostly Cloudy
5:56 AM 50.0 °F 45.0 °F 83% 30.07 in 10.0 mi ENE 8.1 mph - N/A   Clear
6:56 AM 52.0 °F 45.0 °F 77% 30.06 in 10.0 mi East 10.4 mph - N/A   Clear
7:27 AM 53.6 °F 46.4 °F 77% 30.03 in 10.0 mi ENE 11.5 mph - N/A   Overcast
7:56 AM 53.1 °F 45.0 °F 74% 30.06 in 10.0 mi ENE 9.2 mph - N/A   Overcast
8:56 AM 55.9 °F 46.9 °F 72% 30.05 in 10.0 mi ENE 5.8 mph - N/A   Overcast
9:56 AM 59.0 °F 48.9 °F 69% 30.02 in 10.0 mi Variable 5.8 mph - N/A   Overcast
10:22 AM 60.8 °F 50.0 °F 68% 29.97 in 10.0 mi ESE 4.6 mph - N/A   Mostly Cloudy
10:36 AM 62.6 °F 51.8 °F 68% 29.97 in 10.0 mi ENE 6.9 mph - N/A   Mostly Cloudy
10:56 AM 62.1 °F 52.0 °F 70% 30.00 in 10.0 mi Variable 4.6 mph - N/A   Overcast
11:18 AM 62.6 °F 51.8 °F 68% 29.96 in 10.0 mi Variable 3.5 mph - N/A   Mostly Cloudy
11:43 AM 62.6 °F 51.8 °F 68% 29.96 in 10.0 mi WNW 5.8 mph - N/A   Mostly Cloudy
11:56 AM 62.1 °F 52.0 °F 70% 29.98 in 10.0 mi North 5.8 mph - N/A   Mostly Cloudy
12:56 PM 61.0 °F 52.0 °F 72% 29.96 in 10.0 mi NNW 5.8 mph - 0.00 in Rain Light Rain
1:20 PM 60.8 °F 53.6 °F 77% 29.92 in 10.0 mi North 3.5 mph - 0.00 in Rain Light Rain
1:56 PM 57.9 °F 55.0 °F 90% 29.93 in 5.0 mi NE 9.2 mph - 0.05 in Rain Rain
2:10 PM 57.2 °F 55.4 °F 94% 29.89 in 7.0 mi NNE 6.9 mph - 0.01 in Rain Light Rain
2:56 PM 57.9 °F 55.9 °F 93% 29.89 in 4.0 mi NNE 8.1 mph - 0.03 in Rain Light Rain
3:00 PM 57.2 °F 55.4 °F 94% 29.85 in 4.0 mi NNE 8.1 mph - 0.01 in Rain Light Rain
3:56 PM 57.0 °F 55.0 °F 93% 29.88 in 3.0 mi North 4.6 mph - 0.03 in Rain Light Rain
4:01 PM 57.2 °F 55.4 °F 94% 29.84 in 1.8 mi Variable 3.5 mph - 0.00 in Rain Light Rain
4:21 PM 55.4 °F 55.4 °F 100% 29.83 in 3.0 mi North 5.8 mph - 0.03 in Rain Light Rain
4:56 PM 55.9 °F 55.0 °F 97% 29.86 in 3.0 mi NNW 5.8 mph - 0.04 in Rain Light Rain
5:00 PM 55.4 °F 55.4 °F 100% 29.83 in 2.5 mi NNW 8.1 mph - 0.00 in Rain Light Rain
5:12 PM 55.4 °F 55.4 °F 100% 29.84 in 1.5 mi NNW 9.2 mph - 0.02 in Rain Rain
5:38 PM 55.4 °F 53.6 °F 94% 29.83 in 2.5 mi North 6.9 mph - 0.04 in Rain Light Rain
6:30 PM 53.6 °F 51.8 °F 94% 29.82 in 10.0 mi NNW 9.2 mph 17.3 mph 0.00 in   Overcast
6:56 PM 53.1 °F 51.1 °F 93% 29.85 in 6.0 mi North 8.1 mph - 0.01 in Rain Light Rain
7:56 PM 53.1 °F 51.1 °F 93% 29.85 in 10.0 mi North 10.4 mph - 0.01 in   Overcast
8:21 PM 53.6 °F 51.8 °F 94% 29.81 in 10.0 mi NNE 6.9 mph - N/A   Overcast
8:56 PM 54.0 °F 52.0 °F 93% 29.84 in 9.0 mi NE 8.1 mph - 0.00 in Rain Light Rain
9:18 PM 53.6 °F 51.8 °F 94% 29.81 in 10.0 mi North 5.8 mph - 0.00 in Rain Light Rain
9:56 PM 53.1 °F 52.0 °F 96% 29.85 in 7.0 mi NNW 6.9 mph - 0.00 in   Overcast
10:56 PM 53.1 °F 52.0 °F 96% 29.84 in 5.0 mi NW 6.9 mph - 0.01 in   Overcast
11:13 PM 53.6 °F 51.8 °F 94% 29.81 in 7.0 mi NW 5.8 mph - N/A   Overcast
11:56 PM 53.1 °F 52.0 °F 96% 29.84 in 10.0 mi WNW 5.8 mph - N/A   Overcast